Location: Agua Fría
(10.3917°N, 67.1806°W)
Time: 01:32:54
(UTC+00:00)

Daily predictions for brighter satellites

Satellite Brightness Start Highest point End
(mag) Time Altitude Azimuth Time Altitude Azimuth Time Altitude Azimuth
DELTA 2 R/B (1) 4.1 00:02:52 10° SW 00:07:01 50° SSW 00:07:01 50° SSW
Delta 7925 Rocket 4.4 00:03:58 10° SW 00:10:14 60° SSE 00:10:14 60° SSE
Cosmos 1943 Rocket 4.4 00:12:06 10° WSW 00:16:11 20° WNW 00:20:16 10° NNW
CZ-4C R/B 3.7 07:28:12 58° E 07:28:12 58° E 07:36:19 10° SE
SL-16 R/B 4.4 07:33:00 10° ESE 07:37:45 23° ENE 07:40:03 19° NE
Cosmos 1844 Rocket 4.0 07:52:13 35° ESE 07:52:13 35° ESE 07:55:55 10° SE
ARIANE 5 R/B 4.1 07:59:46 30° SSE 07:59:46 30° SSE 08:07:52 10° ESE
Cosmos 1605 Rocket 4.4 08:10:18 38° NNE 08:12:28 58° E 08:18:32 10° SSE
Cosmos 1727 Rocket 4.0 08:13:32 10° S 08:19:41 78° E 08:25:50 10° N
CZ-3 Stage 3 3.9 08:16:52 44° SW 08:20:46 88° SSE 08:55:50 10° ENE
ARIANE 5 R/B 2.5 08:24:34 46° SSE 08:24:34 46° SSE 08:27:24 10° ESE
ASTEX 1 3.9 08:25:35 10° SSE 08:30:25 57° E 08:33:10 25° NNE
Centaur AC-119 4.1 08:31:37 31° SSW 08:31:37 31° SSW 08:34:42 10° SSE
Cosmos 2237 Rocket 2.7 08:29:11 10° S 08:34:45 59° ESE 08:40:17 10° NNE
OAO 3 Rocket 3.8 08:38:27 43° S 08:38:27 43° S 08:42:16 10° SE
DASH 4.4 08:37:32 30° NW 08:40:44 41° N 08:44:28 10° E
Cosmos 1939 Rocket 3.4 08:43:02 48° SSE 08:43:02 48° SSE 08:45:53 10° S
CZ-3 R/B 3.4 08:32:31 32° W 08:42:58 55° NNW 08:50:57 10° NE
Meteor 1-24 Rocket 4.2 08:39:29 10° S 08:45:24 65° E 08:51:08 10° NNE
Cosmos 1844 3.9 08:51:30 43° WSW 08:51:30 43° WSW 08:56:37 10° S
Aurora 2 Rocket 2.6 08:52:57 43° SSE 08:52:57 43° SSE 08:55:21 10° SE
CZ-3C R/B 1.5 08:53:47 32° SE 08:53:47 32° SE 08:55:55 10° E
Cosmos 614 Rocket 4.0 08:53:41 50° W 08:53:51 50° WSW 08:58:42 10° S
Cosmos 1000 Rocket 4.4 08:48:13 10° SSW 08:54:25 67° W 09:00:39 10° N
EPKM 4.3 08:57:01 16° SE 08:57:01 16° SE 08:57:34 10° SE
Meteor 2-5 Rocket 3.9 08:51:08 10° S 08:57:04 78° E 09:02:59 10° N
Meteor 1-28 Rocket 4.0 08:54:01 10° S 08:56:01 33° S 08:56:01 33° S
Cosmos 2123 Rocket 4.0 08:54:44 10° S 09:01:01 88° E 09:07:15 10° N
FALCON 9 R/B 2.9 08:56:29 24° NW 09:04:39 90° SSW 09:09:15 10° SE
CZ-4 R/B 4.1 09:00:30 10° NNE 09:05:15 68° ESE 09:09:54 10° S
SJ-11-01 4.1 09:06:26 10° N 09:11:05 71° WNW 09:15:45 10° SSW
Cosmos 1153 Rocket 4.4 09:05:14 10° N 09:11:26 73° W 09:17:43 10° S
ISS -2.7 09:12:35 21° N 09:14:29 42° NE 09:17:41 10° SE
CZ-4C R/B 4.3 09:13:16 22° W 09:15:34 24° WSW 09:22:25 10° SSW
Meteor 2-21 Rocket 4.4 09:11:09 10° SSW 09:17:15 65° W 09:23:19 10° N
NOAA 12 4.1 09:13:19 10° NNE 09:18:37 84° ESE 09:23:55 10° S
SL-16 R/B 3.2 09:15:38 10° SSW 09:20:59 31° WSW 09:25:07 15° NW
Aureole 1 4.3 09:20:30 10° SSW 09:23:20 44° WNW 09:26:21 10° N
Cosmos 1733 Rocket 3.7 09:27:11 13° NNW 09:30:27 32° W 09:34:18 10° SSW
Cosmos 1340 Rocket 2.5 09:27:03 10° NNW 09:30:43 63° W 09:34:22 10° S
Centaur AC-112 3.6 09:29:23 18° W 09:32:19 65° NNW 09:47:22 10° ENE
SL-16 R/B 3.4 09:27:43 10° S 09:33:07 46° ESE 09:38:29 10° NNE
Cosmos 1844 Rocket 4.4 09:33:56 12° WSW 09:34:01 12° WSW 09:36:15 10° SW
Cosmos 2056 Rocket 3.9 09:29:30 10° S 09:34:48 69° ESE 09:40:09 10° NNE
Cosmos 2084 Rocket 3.6 09:33:41 12° NW 09:37:20 50° WSW 09:41:22 10° S
Iridium 4 Rocket 3.5 09:36:27 10° N 09:40:31 62° E 09:44:39 10° S
GPS 2-15 Rocket1 3.6 09:37:01 15° W 09:40:43 51° SSW 09:45:20 10° SE
UNK 4.5 09:39:15 10° SSW 09:43:13 31° W 09:47:12 10° NW
ATLAS 2A CENTAUR R/B 3.8 09:44:20 10° NNW 09:47:02 33° NE 09:52:56 10° E
Cosmos 1606 2.6 09:45:17 10° NNW 09:47:41 29° W 09:50:06 10° SSW
IRS-1D 4.3 09:47:27 10° NNW 09:51:33 27° WNW 09:55:38 10° SW
Cosmos 1371 Rocket 3.9 09:48:09 10° SSW 09:53:20 76° WNW 09:58:34 10° N
Cosmos 1484 Rocket 2.5 09:50:59 10° N 09:54:30 88° WNW 09:57:59 10° SSW
Cosmos 2100 Rocket 4.3 09:51:32 10° NNW 09:57:20 44° W 10:03:13 10° SSW
